Content
SEND FEEDBACK

Daily
Averages
Monthly
Summary
United States of America

YIGO, GUAM


Home > North America > United States > Guam
Elevation: 530 feet     Latitude: 13 32N     Longitude: 144 53E

WEATHER
 
SELECT A DAY
Number of Records: 214,775;   Date Range: 1/1/95 - 11/21/14
 
SHARE

PRINT THIS DATA

[ ← Previous Day ]
WEATHER ALMANAC - JULY 21, 2013
[ Next Day → ]
[ °C ]   °F
Weather ElementAverageHighLow
Temperature84.9 °F90 °F (12:54 pm)79 °F (4:54 am)
Dewpoint76.1 °F78.8 °F (9:44 pm)75 °F (4:54 am)
Humidity75.4 %89 % (9:44 pm)61 % (12:54 pm)
Barometer29.81 in29.86 in (9:33 pm)29.76 in (2:54 pm)
Wind Speed5.1 mph12.7 mph (4:54 pm)
Wind Gust23 mph (9:33 pm)
Weather ElementAverage
Visibility9.7 mi
Wind DirectionENE (63.6 °)

Weather ElementTotal
Precipitation0.38 in
Cooling Degree Days19.5 (Base 65)
Growing Degree Days34.5 (Base 50)
Averaged from 28 records on July 21, 2013
WEATHER CONDITIONS BREAKOUT
WIND DIRECTION BREAKOUT
WEATHER BY HOUR - JULY 21, 2013
[ °C ]   °F
Local TimeTemperatureDewpointHumidityBarometerVisibilityWind DirectionWind SpeedGust SpeedPrecipitationEventsConditions
1:54 AM80.1 °F75.9 °F87 %29.81 in10.0 miCalmClear
2:54 AM80.1 °F75.9 °F87 %29.80 in10.0 miCalmClear
3:54 AM80.1 °F75.9 °F87 %29.79 in10.0 miCalmClear
4:54 AM79.0 °F75.0 °F88 %29.80 in10.0 miCalmClear
5:54 AM80.1 °F75.0 °F85 %29.78 in10.0 miCalmClear
6:54 AM82.9 °F77.0 °F82 %29.80 in10.0 miNE (50°)3.5 mphClear
7:54 AM84.9 °F77.0 °F77 %29.81 in10.0 miCalmClear
8:54 AM84.9 °F75.9 °F74 %29.82 in10.0 miCalmMostly Cloudy
9:14 AM86.0 °F75.2 °F70 %29.85 in10.0 miESE (110°)5.8 mphScattered Clouds
9:54 AM87.1 °F75.9 °F69 %29.81 in10.0 miSE (130°)6.9 mphMostly Cloudy
10:03 AM87.8 °F75.2 °F66 %29.83 in10.0 miESE (110°)8.1 mphScattered Clouds
10:54 AM88.0 °F77.0 °F70 %29.81 in10.0 miESE (120°)6.9 mphMostly Cloudy
11:02 AM87.8 °F75.2 °F66 %29.83 in10.0 miESE (110°)6.9 mphScattered Clouds
11:54 AM89.1 °F75.9 °F65 %29.80 in10.0 miSE (140°)8.1 mphMostly Cloudy
12:54 PM90.0 °F75.0 °F61 %29.78 in10.0 miESE (120°)8.1 mphScattered Clouds
1:54 PM90.0 °F75.9 °F63 %29.77 in10.0 miEast (100°)11.5 mphScattered Clouds
2:54 PM89.1 °F75.0 °F63 %29.76 in10.0 miEast (90°)8.1 mphScattered Clouds
3:54 PM88.0 °F75.9 °F67 %29.76 in10.0 miEast (90°)8.1 mphPartly Cloudy
4:54 PM88.0 °F75.0 °F65 %29.76 in10.0 miENE (70°)12.7 mphPartly Cloudy
5:54 PM87.1 °F75.0 °F67 %29.77 in10.0 miEast (80°)6.9 mphPartly Cloudy
6:54 PM86.0 °F75.9 °F72 %29.79 in10.0 miENE (70°)5.8 mphPartly Cloudy
7:54 PM84.0 °F77.0 °F79 %29.82 in10.0 miNE (40°)5.8 mphPartly Cloudy
8:54 PM84.9 °F77.0 °F77 %29.83 in10.0 miENE (70°)4.6 mphPartly Cloudy
9:33 PM82.4 °F75.2 °F79 %29.86 in1.8 miNNE (30°)10.4 mph23.0 mph0.10 inRainHeavy Rain
9:44 PM82.4 °F78.8 °F89 %29.86 in10.0 miENE (60°)5.8 mph0.14 inMostly Cloudy
9:54 PM82.9 °F78.1 °F85 %29.84 in10.0 miESE (110°)3.5 mph0.14 inMostly Cloudy
10:54 PM82.9 °F78.1 °F85 %29.85 in10.0 miEast (80°)5.8 mphPartly Cloudy
11:54 PM82.0 °F77.0 °F85 %29.84 in10.0 miCalmPartly Cloudy
Hourly data recorded from PGUM, located miles away from Yigo, Guam







STORIES FROM OUR PARTNERS